Location: Middlebury
(44.0133°N, 73.1813°W)
Time: 20:45:21
(UTC-05:00)

ISS - Pass Details

Date: 23 January 2020
Orbit: 415 x 422 km, 51.6° (Epoch: 26 February)

Event Time Altitude Azimuth Distance (km) Brightness Sun altitude
Rises 19:19:49 0° 267° (W) 2,375 1.4 -26.7°
Reaches altitude 10° 19:22:05 10° 278° (W) 1,510 0.0 -27.1°
Enters shadow 19:23:34 21° 297° (WNW) 1,021 -1.2 -27.4°
